Spokane, WA
on Tuesday, November 6, 2012

Tuesday
Previous Day Next Day
Daily Summary
 ActualAverageRecord
Temperature
Mean Temperature °F 39°F  
Max Temperature 55°F 46°F 61°F (2006)
Min Temperature 39°F 32°F 9°F (2003)
Degree Days
Heating Degree Days 18 26  
Month to date heating degree days 95 149  
Since 1 July heating degree days 701 937  
Cooling Degree Days 0 0  
Month to date cooling degree days 0 0  
Year to date cooling degree days 535 450  
Moisture
Dew Point 45°F   
Average Humidity 89    
Maximum Humidity 100    
Minimum Humidity 77    
Precipitation
Precipitation 0.02 in 0.07 in 0.84 in (1903)
Month to date precipitation 0.30 0.39  
Year to date precipitation 15.80 12.35  
Snow
Snow 0.00 in 0.10 in 0.30 in (1975)
Month to date snowfall 0.0 0.5  
Since 1 July snowfall T 0.6  
Since 1 September snowfall T 0.6  
Snow Depth 0.00 in   
Wind
Wind Speed 6 mph   
Max Wind Speed 17 mph   
Max Gust Speed 22 mph   
Visibility 4 miles   
Events Fog , Rain   

Key: T is trace of precipitation, MM is missing value
Source: NWS Daily Summary
Time(PST)TemperatureDew PointHumidity Pressure Visibility Wind DirectionWind SpeedGust SpeedPrecipitationEvents Conditions
12:53 AM 42.1°F 39.9°F 92% 30.21 in 10.0 miles East 3.5 mph - N/A   Mostly Cloudy
1:18 AM 42.8°F 41.0°F 93% 30.19 in 2.0 miles ENE 4.6 mph - N/A   Mostly Cloudy
1:33 AM 41.0°F 41.0°F 100% 30.19 in 0.5 miles Calm Calm - N/A Fog Fog
1:53 AM 41.0°F 41.0°F 100% 30.20 in 0.5 miles Calm Calm - N/A Fog Fog
2:53 AM 39.0°F 39.0°F 100% 30.19 in 0.5 miles Calm Calm - N/A Fog Fog
3:53 AM 39.0°F 39.0°F 100% 30.18 in 0.5 miles ENE 3.5 mph - N/A Fog Fog
4:53 AM 41.0°F 41.0°F 100% 30.17 in 0.2 miles NE 5.8 mph - N/A Fog Fog
5:53 AM 41.0°F 39.9°F 96% 30.15 in 0.2 miles ENE 5.8 mph - N/A Fog Fog
6:53 AM 41.0°F 41.0°F 100% 30.15 in 0.2 miles ENE 6.9 mph - N/A Fog Fog
7:43 AM 42.8°F 41.0°F 93% 30.11 in 0.1 miles ENE 9.2 mph - N/A Fog Fog
7:53 AM 42.1°F 42.1°F 100% 30.14 in 0.1 miles ENE 4.6 mph - N/A Fog Fog
8:53 AM 43.0°F 42.1°F 97% 30.12 in 0.1 miles ENE 5.8 mph - N/A Fog Fog
9:53 AM 44.1°F 43.0°F 96% 30.11 in 0.1 miles ENE 6.9 mph - N/A Fog Fog
10:53 AM 45.0°F 44.1°F 97% 30.08 in 0.2 miles NE 4.6 mph - N/A Fog Fog
11:42 AM 46.4°F 44.6°F 93% 30.03 in 0.5 miles NNE 4.6 mph - N/A Fog Fog
11:53 AM 46.9°F 46.0°F 97% 30.05 in 0.5 miles NE 4.6 mph - N/A   Overcast
12:18 PM 46.4°F 46.4°F 100% 30.00 in 1.0 miles NE 4.6 mph - N/A   Mostly Cloudy
12:22 PM 48.2°F 46.4°F 93% 30.00 in 2.0 miles NNE 3.5 mph - N/A   Mostly Cloudy
12:23 PM 48.2°F 46.4°F 93% 30.00 in 6.0 miles NE 3.5 mph - N/A   Mostly Cloudy
12:53 PM 51.1°F 46.0°F 83% 30.00 in 10.0 miles NE 3.5 mph - N/A   Mostly Cloudy
1:53 PM 54.0°F 46.9°F 77% 29.97 in 10.0 miles NE 4.6 mph - N/A   Overcast
2:53 PM 54.0°F 48.0°F 80% 29.96 in 10.0 miles North 3.5 mph - N/A   Overcast
3:53 PM 53.1°F 48.0°F 83% 29.93 in 10.0 miles Calm Calm - N/A   Overcast
4:53 PM 51.1°F 48.0°F 89% 29.91 in 10.0 miles Calm Calm - N/A   Overcast
5:53 PM 50.0°F 46.0°F 86% 29.90 in 10.0 miles Calm Calm - N/A   Mostly Cloudy
6:53 PM 52.0°F 46.0°F 80% 29.89 in 10.0 miles SSW 9.2 mph - N/A   Overcast
7:53 PM 53.1°F 48.0°F 83% 29.89 in 10.0 miles SSW 9.2 mph - 0.00 in Rain Light Rain
8:53 PM 53.1°F 50.0°F 89% 29.88 in 10.0 miles SSW 11.5 mph - 0.00 in   Overcast
9:20 PM 51.8°F 50.0°F 94% 29.87 in 7.0 miles SW 15.0 mph - 0.00 in   Mostly Cloudy
9:41 PM 51.8°F 50.0°F 94% 29.87 in 4.0 miles SSW 15.0 mph - 0.00 in Rain Light Rain
9:53 PM 52.0°F 50.0°F 93% 29.89 in 4.0 miles SSW 13.8 mph - 0.01 in Rain Light Rain
10:53 PM 51.1°F 48.9°F 92% 29.89 in 5.0 miles SW 15.0 mph - 0.00 in Rain Light Rain
11:53 PM 51.1°F 48.9°F 92% 29.88 in 5.0 miles SSW 13.8 mph - 0.01 in   Mostly Cloudy
Moon Phase
Nov. 06 Nov. 06 Nov. 13 Nov. 20 Nov. 28
Sunrise:06:42 AM (PST) Moon Rise:11:14 PM (PST)11/6
Sunset:04:24 PM (PST) Moon Set:12:33 PM (PST)11/6

Copyright © 2014 The Weather Underground, Inc.